Location: Newark
(35.6799°N, 139.7636°E)
Time: 07:23:30
(UTC+00:00)

Explorer 7 - Pass Details

Date: 12 December 2019
Orbit: 485 x 679 km, 50.3° (Epoch: 19 January)

Event Time Altitude Azimuth Distance (km) Brightness Sun altitude
Rises 06:58:08 0° 269° (W) 2,979 11.7 4.4°
Reaches altitude 10° 07:00:51 10° 283° (WNW) 2,089 10.5 3.9°
Maximum altitude 07:04:47 24° 337° (NNW) 1,391 8.8 3.2°
Drops below altitude 10° 07:08:46 10° 31° (NNE) 2,118 9.3 2.5°
Sets 07:11:33 0° 46° (NE) 3,030 9.9 2.1°
